This is the latest recevied weather packets stored in our database for station/object OE5XFR. If no packets are shown the sender has not sent any weather packets the latest 10 day(s).
| Time | Temp. | Humidity | Pressure | Rain* | Wind** | Luminosity | Snow |
|---|---|---|---|---|---|---|---|
| 1777250716 | 7.22° C | 39% | 1023 hPa | 0 mm | - | - | - |
| 1777249996 | 7.78° C | 40% | 1023 hPa | 0 mm | - | - | - |
| 1777249276 | 7.78° C | 40% | 1023 hPa | 0 mm | - | - | - |
| 1777248556 | 7.78° C | 40% | 1023 hPa | 0 mm | - | - | - |
| 1777247836 | 8.33° C | 39% | 1023 hPa | 0 mm | - | - | - |
| 1777247116 | 8.33° C | 39% | 1023 hPa | 0 mm | - | - | - |
| 1777246397 | 8.89° C | 43% | 1023 hPa | 0 mm | - | - | - |
| 1777245676 | 8.89° C | 38% | 1023 hPa | 0 mm | - | - | - |
| 1777244956 | 8.89° C | 38% | 1023 hPa | 0 mm | - | - | - |
| 1777244236 | 8.89° C | 38% | 1023 hPa | 0 mm | - | - | - |
| 1777243516 | 9.44° C | 39% | 1023 hPa | 0 mm | - | - | - |
| 1777242796 | 8.89° C | 39% | 1023 hPa | 0 mm | - | - | - |
| 1777242076 | 8.89° C | 39% | 1023 hPa | 0 mm | - | - | - |
| 1777241355 | 9.44° C | 44% | 1023 hPa | 0 mm | - | - | - |
| 1777240636 | 9.44° C | 47% | 1023 hPa | 0 mm | - | - | - |
| 1777239916 | 9.44° C | 44% | 1023 hPa | 0 mm | - | - | - |
| 1777239195 | 9.44° C | 43% | 1023 hPa | 0 mm | - | - | - |
| 1777238476 | 10° C | 38% | 1023 hPa | 0 mm | - | - | - |
| 1777237756 | 10° C | 44% | 1023 hPa | 0 mm | - | - | - |
| 1777237036 | 11.11° C | 39% | 1023 hPa | 0 mm | - | - | - |
| 1777236316 | 11.11° C | 39% | 1023 hPa | 0 mm | - | - | - |
| 1777235595 | 11.67° C | 42% | 1023 hPa | 0 mm | - | - | - |
| 1777234876 | 12.22° C | 38% | 1023 hPa | 0 mm | - | - | - |
| 1777234157 | 12.22° C | 36% | 1023 hPa | 0 mm | - | - | - |
| 1777233435 | 12.78° C | 36% | 1022 hPa | 0 mm | - | - | - |
* Rain latest hour (hover to see other rain measurements)
** Current wind speed in m/s (hover to see current wind gust speed)